Regional Weather Roundup
Issued by NWS

Home | Current Version | Previous Version | Graphics & Text | Print | Product List | Glossary On
Versions: 1 2 3 4 5 6 7 8 9 10 11 12 13 14 15 16 17 18 19 20 21 22 23 24 25 26 27 28 29 30 31 32 33 34 35 36 37 38 39 40 41 42 43 44 45 46 47 48 49 50
000
ASUS44 KMEG 271400
RWRTN
TENNESSEE HOURLY STATE WEATHER ROUNDUP
NATIONAL WEATHER SERVICE MEMPHIS TN
900 AM CDT FRI MAY 27 2016

TNZ002-004-019-021-049-052-054-088>092-271500-
WEST TENNESSEE

CITY           SKY/WX    TMP DP  RH WIND       PRES   REMARKS
MEMPHIS INTL   CLOUDY    75  69  81 SE8       29.95S
NWS MEMPHIS      N/A     73 N/A N/A MISG        N/A
JACKSON        CLOUDY    72  66  81 S8        29.99R
DYERSBURG      CLOUDY    72  66  83 SE7       29.97R
UNION CITY     SUNNY     70  68  94 SE10      29.96S
PARIS          SUNNY     70  64  83 S7        30.00S
LEXINGTON      SUNNY     72  66  83 S5        30.00S
$$

TNZ008-025-027-028-033-062-065-066-271500-
NORTH MIDDLE TENNESSEE

CITY           SKY/WX    TMP DP  RH WIND       PRES   REMARKS
NASHVILLE      CLOUDY    76  64  66 S5        30.06R
CLARKSVILLE    CLOUDY    72  65  78 S6        30.02R
COOKEVILLE     SUNNY     79  66  65 S6        30.09R
CROSSVILLE     SUNNY     76  63  64 S7        30.14F
$$

TNZ061-075-076-078-094-096-097-271500-
SOUTH MIDDLE TENNESSEE

CITY           SKY/WX    TMP DP  RH WIND       PRES   REMARKS
TULLAHOMA      SUNNY     75  68  78 SW14      30.10R
WINCHESTER     SUNNY     79  64  61 S9        30.09S
COLUMBIA       SUNNY     75  75 100 S8        30.04S
SHELBYVILLE    SUNNY     81  66  61 S12       30.08S
$$

TNZ017-018-042-046-047-271500-
NORTHEAST TENNESSEE

CITY           SKY/WX    TMP DP  RH WIND       PRES   REMARKS
TRI CITIES     MOSUNNY   73  63  70 CALM      30.16S
$$

TNZ012-013-036-069-073-074-271500-
CENTRAL EAST TENNESSEE

CITY           SKY/WX    TMP DP  RH WIND       PRES   REMARKS
KNOXVILLE      PTSUNNY   74  65  73 NE3       30.12S
OAK RIDGE      SUNNY     75  64  68 CALM      30.13F
GATLINBURG     MOSUNNY   70  63  78 CALM      30.13S
$$

TNZ083-085-099-271500-
SOUTHEAST TENNESSEE

CITY           SKY/WX    TMP DP  RH WIND       PRES   REMARKS
CHATTANOOGA    PTSUNNY   77  64  64 S6        30.11R
$$

SKY/WX REPORTED AS FAIR MEANS FEW OR NO CLOUDS BELOW
12 THOUSAND FEET.




USA.gov is the U.S. government's official web portal to all federal, state and local government web resources and services.